sat.trackr.live / text

‹ back to catalog

STARLINK-4295

NORAD 52996 · 2022-076L

PAYLOAD ACTIVE UNKNOWN

§ Identity

Operator
Country
US
Launch date
2022-07-07
Launch site
AFETR
Launch vehicle
Mass (kg)
RCS (m²)

Purposes: comms

External: N2YO · Heavens-Above · Gunter

§ Orbital elements

Epoch: 2026-05-25T03:56:56.153184Z

Period
95.44 min
Inclination
53.2126°
Eccentricity
0.0001186
Mean motion
15.08839980 rev/d
Perigee alt
538.9 km
Apogee alt
540.6 km
Semi-major
6,917.9 km
B*
5.5888e-5
RAAN
111.0943°
Arg perigee
80.0277°
Mean anomaly
280.0849°
Rev number
21,438

§ Raw data

STARLINK-42951 52996U 22076L   26145.16453881  .00000602  00000+0  55888-4 0  99972 52996  53.2126 111.0943 0001186  80.0277 280.0849 15.08839980214381

JSON: /api/v1/satellites/52996 · /tle

For live sub-satellite position, see the globe view (requires WebGL).

§ Visibility from observer

Set your observer location to see the next 7 days of passes ≥ 10°. The values pass through the URL so the page stays shareable.

No JS? Fill the form by hand. The geolocation button needs JavaScript.